Weather Service Report


738 
ASUS43 KLOT 271508
RWRIL 

ILLINOIS REGIONAL WEATHER ROUNDUP
NATIONAL WEATHER SERVICE CHICAGO/ROMEOVILLE IL
1000 AM CDT WED JUL 27 2016

NOTE: "FAIR" INDICATES FEW OR NO CLOUDS BELOW 12,000 FEET WITH NO
SIGNIFICANT WEATHER AND/OR OBSTRUCTIONS TO VISIBILITY.

* THESE STATIONS ARE NOT UNDER NWS QUALITY CONTROL. THEY ALSO MAY NOT
  REPORT WEATHER SUCH AS PRECIPITATION OR FOG.

ILZ001-002-007-009-015-016-024-271600-
NORTHWEST ILLINOIS
  
CITY           SKY/WX    TMP DP  RH WIND       PRES   REMARKS
MOLINE         SUNNY     80  69  69 SE5       30.01S HX  83           
STERLING*      SUNNY     80  72  76 CALM      30.02F HX  84           
SAVANNA*       MOSUNNY   80  69  69 CALM      30.02S HX  83           
$$

ILZ003-004-008-010-011-017-018-271600-
NORTH CENTRAL ILLINOIS
  
CITY           SKY/WX    TMP DP  RH WIND       PRES   REMARKS
ROCKFORD       PTSUNNY   80  66  62 S5        30.03F HX  82           
FREEPORT*      SUNNY     78  67  68 CALM      30.05S HX  80           
ROCHELLE*      SUNNY     78  69  74 CALM      30.04S HX  80           
DE KALB*       SUNNY     81  67  63 CALM      30.04S HX  83           
$$

ILZ005-006-012>014-019>023-271600-
NORTHEAST ILLINOIS
  
CITY           SKY/WX    TMP DP  RH WIND       PRES   REMARKS
CHICAGO-OHARE  MOSUNNY   84  62  47 VRB3      30.00F HX  85           
CHICAGO-MIDWAY MOSUNNY   85  64  49 VRB5      30.01S HX  86           
AURORA         SUNNY     82  69  64 SW3       30.03S HX  85           
LANSING*       SUNNY     82  65  57 CALM      30.02S HX  84           
JOLIET*        MOSUNNY   82  72  70 SW3       30.02S HX  87           
WAUKEGAN       SUNNY     83  67  58 VRB3      30.00F HX  85           
DUPAGE AIRPORT SUNNY     82  64  54 W3        30.01F HX  83           
KANKAKEE*      SUNNY     82  69  65 CALM      30.03F HX  85           
WHEELING       SUNNY     82  63  52 CALM      30.02F HX  83           
MORRIS*        SUNNY     79  71  75 CALM      30.01F HX  82           
ROMEOVILLE*    SUNNY     81  66  61 CALM      30.02F HX  83           
NORTHERLY ISL    N/A     79  70  74 CALM        N/A  HX  82           
$$

LMZ740>746-271600-
SOUTHERN LAKE MICHIGAN
  
STATION/POSITION SKY/WX   TEMP    WIND        PRES    VSBY  WAVE
                          AIR SEA DIR/SP/G                  HT/PER
                          (F)     (DEG/KT/KT) (MB)    (MI)  (FT/S)
SOUTHERN BUOY              75 75  230/  6/  8 1015.3S         0
WILMETTE HARBOR            78 74  200/  2/  2   N/A           0
HARRISON CRIB              78     160/  2/  2   N/A
BURNHAM HARBOR             80     100/  1/  3   N/A
CALUMET HARBOR             83      CALM  /  1 1015.8F
BURNS HARBOR               75     270/  4/  5 1016.9F
MICHIGAN CITY              74     230/  5/  6   N/A
MICHIGAN CITY 6N           75 75  240/  4/  6   N/A           1
ST. JOSEPH                 74 76  200/  4/  4 1016.1F         0
$$

ILZ025>027-034>036-040-047-049-050-058-095>099-271600-
WEST-CENTRAL ILLINOIS
  
CITY           SKY/WX    TMP DP  RH WIND       PRES   REMARKS
QUINCY         PTSUNNY   79  75  87 CALM      30.00S HX  83           
GALESBURG*     MOSUNNY   79  70  72 SE5       30.02S HX  82           
MACOMB*        CLOUDY    78  72  81 SE7       30.03S HX  81           
JACKSONVILLE*  CLOUDY    78  74  88 SE3       30.01R HX  81           
PITTSFIELD*    PTSUNNY   80  76  88 CALM      30.01S HX  84           
$$

ILZ028>032-037-038-041>044-048-051>054-059>061-271600-
CENTRAL ILLINOIS
  
CITY           SKY/WX    TMP DP  RH WIND       PRES   REMARKS
PONTIAC        SUNNY     81  74  79 SE3       30.03S HX  86           
BLOOMINGTON    MOSUNNY   79  70  74 SE7       30.04S HX  82           
DECATUR        SUNNY     81  69  67 E7        30.02S HX  84           
PEORIA         SUNNY     80  69  69 SE7       30.01F HX  83           
LACON*         MOSUNNY   81  69  66 S3        30.00F HX  83           
LINCOLN*       MOSUNNY   80  71  73 SE6       30.01S HX  84           
SPRINGFIELD    CLOUDY    81  72  74 SE8       30.01S HX  85           
TAYLORVILLE    PTSUNNY   80  73  79 MISG      30.01S HX  85           
$$

ILZ033-039-045-046-055>057-062-063-271600-
EAST-CENTRAL ILLINOIS
  
CITY           SKY/WX    TMP DP  RH WIND       PRES   REMARKS
CHAMPAIGN      SUNNY     80  70  71 E7        30.02F HX  83           
MATTOON        SUNNY     80  72  76 SE7       30.02R HX  84           
PARIS*         SUNNY     80  71  73 CALM      30.03R HX  84           
$$

ILZ079-100>102-271600-
SOUTHWEST ILLINOIS
  
CITY           SKY/WX    TMP DP  RH WIND       PRES   REMARKS
ALTON          PTSUNNY   79  75  89 S7        29.99F HX  82           
BELLEVILLE     CLOUDY    78  78  99 S6        29.99F HX  80           
CAHOKIA*       CLOUDY    78  72  81 S3        30.00S HX  80           
SPARTA*        LGT RAIN  76  74  95 SW3       30.02F                  
$$

ILZ064>066-069>071-074>076-080>082-084>086-088>090-092>094-271600-
SOUTH-CENTRAL ILLINOIS
  
CITY           SKY/WX    TMP DP  RH WIND       PRES   REMARKS
CARBONDALE     PTSUNNY   83  75  77 VRB3      30.01R HX  90           
CAIRO*         MOSUNNY   83  77  83 CALM      29.99R HX  91           
EFFINGHAM*     CLOUDY    78  76  93 E6        30.03S HX  82           
MT. VERNON     SUNNY     84  73  70 MISG      30.00R HX  91           
CENTRALIA*     MOSUNNY   81  77  89 CALM      30.00S HX  88           
SALEM*         CLOUDY    80  74  83 CALM      30.02R HX  84           
METROPOLIS*    SUNNY     84  78  81 CALM      30.00S HX  95           
$$

ILZ067-068-072-073-078-083-087-091-271600-
SOUTHEAST ILLINOIS
  
CITY           SKY/WX    TMP DP  RH WIND       PRES   REMARKS
LAWRENCEVILLE  CLOUDY    79  74  84 E5        30.02R HX  82           
FLORA*         CLOUDY    82  76  84 NE5       30.02R HX  88           
FAIRFIELD*     CLOUDY    81  77  86 CALM      30.00S HX  88           
HARRISBURG*    MOSUNNY   81  78  89 SE3       30.01R HX  90           
ROBINSON*      CLOUDY    79  71  78 E6        30.03R HX  82           
CARMI*         SUNNY     85  79  82 E5        30.00R HX  98           
$$

ABBREVIATIONS USED IN REMARKS
   TC - TEMPERATURE IN CELSIUS
  WCI - WIND CHILL INDEX
   HX - HEAT INDEX
  VSB - VISIBILITY
$$

  

Return to Home page


Western Regional Climate Center, wrcc@dri.edu